{"data":{"norad_id":48986,"intl_designator":"2021-060V","name":"ONEWEB-0268","alt_names":[],"object_type":"PAYLOAD","status":"ACTIVE","operator":null,"country":"UK","launch_date":"2021-07-01","launch_site_code":"VOSTO","launch_vehicle":null,"mission":null,"orbit_class":"UNKNOWN","rcs_meters":null,"size_class":null,"mass_kg":null,"dimensions":null,"purposes":["comms"],"wikipedia_slug":null,"has_3d_model":false,"image_url":null,"decayed_at":null,"tle_current":{"epoch":"2026-05-25T00:08:40.903008Z","epoch_age_seconds":88728,"freshness":"FRESH","line1":"1 48986U 21060V   26145.00602897  .00000056  00000+0  11382-3 0  9992","line2":"2 48986  87.9108 233.3835 0002117  97.4431 262.6941 13.16594403236801","mean_motion":13.16594403,"eccentricity":0.0002117,"inclination_deg":87.9108,"raan_deg":233.3835,"arg_perigee_deg":97.4431,"mean_anomaly_deg":262.6941,"bstar":0.00011382,"rev_number":23680,"period_min":109.37309141819,"perigee_km":1196.1522904516,"apogee_km":1199.3599235931,"semimajor_km":7575.8931070224,"source":"CELESTRAK","updated_at":"2026-05-25T13:38:22.475408Z"}}}